TimeCDT,TemperatureF,Dew PointF,Humidity,Sea Level PressureIn,VisibilityMPH,Wind Direction,Wind SpeedMPH,Gust SpeedMPH,PrecipitationIn,Events,Conditions,WindDirDegrees,DateUTC
12:53 AM,64.9,54.0,68,29.95,10.0,SSW,6.9,-,N/A,,Clear,200,2012-10-06 05:53:00
1:53 AM,63.0,54.0,72,29.97,10.0,Variable,3.5,-,N/A,,Clear,0,2012-10-06 06:53:00
2:53 AM,62.1,55.0,78,29.98,10.0,West,8.1,-,N/A,,Overcast,280,2012-10-06 07:53:00
3:48 AM,60.8,55.4,82,30.05,8.0,NNW,10.4,-,N/A,,Overcast,330,2012-10-06 08:48:00
3:53 AM,60.1,55.9,86,30.00,7.0,NNW,9.2,-,N/A,,Overcast,340,2012-10-06 08:53:00
4:53 AM,54.0,51.1,90,30.02,4.0,North,5.8,-,0.03,Rain,Rain,360,2012-10-06 09:53:00
5:15 AM,53.6,51.8,94,30.06,7.0,North,6.9,-,0.03,Rain,Light Rain,350,2012-10-06 10:15:00
5:53 AM,52.0,50.0,93,30.04,10.0,Variable,3.5,-,0.03,,Overcast,0,2012-10-06 10:53:00
6:01 AM,51.8,50.0,94,30.08,10.0,NNW,3.5,-,0.00,Rain,Light Rain,340,2012-10-06 11:01:00
6:31 AM,51.8,48.2,88,30.08,10.0,Variable,3.5,-,0.00,,Overcast,0,2012-10-06 11:31:00
6:53 AM,51.1,48.0,89,30.06,10.0,Calm,Calm,-,0.00,,Overcast,0,2012-10-06 11:53:00
7:53 AM,50.0,46.9,89,30.07,10.0,North,8.1,-,N/A,,Overcast,360,2012-10-06 12:53:00
8:03 AM,48.2,46.4,93,30.09,1.8,NNW,9.2,-,N/A,,Overcast,330,2012-10-06 13:03:00
8:17 AM,48.2,46.4,93,30.10,0.5,NNW,8.1,-,N/A,Fog,Fog,330,2012-10-06 13:17:00
8:27 AM,48.2,46.4,93,30.11,0.2,NNW,9.2,-,N/A,Fog,Fog,340,2012-10-06 13:27:00
8:35 AM,46.4,46.4,100,30.11,0.8,North,8.1,-,N/A,,Overcast,360,2012-10-06 13:35:00
8:43 AM,46.4,46.4,100,30.11,1.2,NNW,10.4,-,N/A,,Overcast,340,2012-10-06 13:43:00
8:53 AM,46.9,45.0,93,30.09,1.8,North,8.1,-,N/A,,Overcast,360,2012-10-06 13:53:00
9:17 AM,46.4,44.6,93,30.12,2.0,North,6.9,-,N/A,,Overcast,360,2012-10-06 14:17:00
9:31 AM,46.4,44.6,93,30.12,5.0,North,8.1,-,N/A,,Overcast,350,2012-10-06 14:31:00
9:44 AM,46.4,44.6,93,30.12,4.0,North,5.8,-,N/A,,Overcast,360,2012-10-06 14:44:00
9:53 AM,46.9,45.0,93,30.10,9.0,North,8.1,-,N/A,,Overcast,350,2012-10-06 14:53:00
10:53 AM,48.0,45.0,89,30.12,10.0,North,10.4,-,N/A,,Overcast,360,2012-10-06 15:53:00
11:22 AM,48.2,46.4,93,30.13,10.0,North,6.9,-,N/A,,Overcast,360,2012-10-06 16:22:00
11:53 AM,48.0,45.0,89,30.11,10.0,North,8.1,-,N/A,,Overcast,10,2012-10-06 16:53:00
12:38 PM,50.0,44.6,82,30.10,10.0,North,8.1,-,N/A,,Overcast,360,2012-10-06 17:38:00
12:53 PM,50.0,45.0,83,30.07,10.0,NNE,8.1,-,N/A,,Overcast,30,2012-10-06 17:53:00
1:29 PM,51.8,44.6,76,30.09,10.0,NNE,10.4,-,N/A,,Overcast,30,2012-10-06 18:29:00
1:53 PM,53.1,45.0,74,30.05,10.0,North,10.4,-,N/A,,Overcast,350,2012-10-06 18:53:00
2:53 PM,53.1,44.1,71,30.06,10.0,ENE,4.6,-,N/A,,Scattered Clouds,60,2012-10-06 19:53:00
3:53 PM,55.9,44.1,64,30.05,10.0,North,8.1,-,N/A,,Partly Cloudy,350,2012-10-06 20:53:00
4:53 PM,55.0,43.0,64,30.05,10.0,NNE,9.2,-,N/A,,Partly Cloudy,20,2012-10-06 21:53:00
5:38 PM,53.6,44.6,72,30.10,10.0,NNW,9.2,-,N/A,,Mostly Cloudy,340,2012-10-06 22:38:00
5:53 PM,53.1,43.0,69,30.08,10.0,North,8.1,-,N/A,,Mostly Cloudy,350,2012-10-06 22:53:00
6:08 PM,53.6,42.8,67,30.10,10.0,North,8.1,-,N/A,,Scattered Clouds,360,2012-10-06 23:08:00
6:53 PM,51.1,42.1,71,30.09,10.0,NNE,4.6,-,N/A,,Clear,20,2012-10-06 23:53:00
7:53 PM,50.0,42.1,74,30.07,10.0,NE,3.5,-,N/A,,Clear,40,2012-10-07 00:53:00
8:53 PM,48.9,42.1,77,30.13,10.0,West,4.6,-,N/A,,Scattered Clouds,280,2012-10-07 01:53:00
9:53 PM,48.9,41.0,74,30.09,10.0,NE,5.8,-,0.00,,Scattered Clouds,40,2012-10-07 02:53:00
10:53 PM,48.9,39.0,69,30.10,10.0,North,4.6,-,N/A,,Overcast,350,2012-10-07 03:53:00